Pineville, WV

12:33 PM EST on November 18, 2017 (GMT -0500)
Pineville

Weather History for KI16 - July, 2013

Change the Weather History Date:

Thursday, July 25, 2013

  Actual Average (KBKW) Record (KBKW)
Temperature  
Mean Temperature 69 °F -  
Max Temperature 79 °F 79 °F 93 °F (1934)
Min Temperature 59 °F 62 °F 46 °F (1954)
Cooling Degree Days 4    
Growing Degree Days 19 (Base 50)    
Moisture  
Dew Point 61 °F    
Average Humidity 81    
Maximum Humidity 100    
Minimum Humidity 48    
Precipitation  
Precipitation 0.00 in - - ()
Sea Level Pressure  
Sea Level Pressure 30.09 in    
Wind  
Wind Speed - (North)    
Max Wind Speed -    
Max Gust Speed -    
Visibility 8 miles    
Events Fog    
Averages and records for this station are not official NWS values.
T = Trace of Precipitation, MM = Missing Value Source: NWS Daily Summary

Daily Weather History Graph

Daily Weather History Graph

Search for Another Location

Airport or City:

Trip Planner

Search our weather history database for the weather conditions in past years. The results will help you decide how hot, cold, wet, or windy it might be!

Date:

Astronomy

Jul. 25, 2013 Rise Set
Actual Time 6:24 AM EDT 8:40 PM EDT
Civil Twilight 5:55 AM EDT 9:09 PM EDT
Nautical Twilight 5:18 AM EDT 9:46 PM EDT
Astronomical Twilight 4:38 AM EDT 10:25 PM EDT
Moon 10:26 PM EDT (7/25) 9:47 AM EDT (7/25)
Length of Visible Light 15h 14m
Length of Day
14h 15m
Waning Gibbous, 88% of the Moon is Illuminated
Jul 25
Waning Gibbous
Jul 29
Last Quarter
Aug 6
New
Aug 14
First Quarter
Aug 20
Full

Hourly Weather History & Observations

Time (EDT) Temp. Dew Point Humidity Pressure Visibility Wind Dir Wind Speed Gust Speed Precip Events Conditions
12:15 AM 63.9 °F 63.9 °F 100% 30.04 in 5.0 mi North - - N/A   Overcast
12:35 AM 63.3 °F 63.3 °F 100% 30.04 in 5.0 mi North - - N/A   Mostly Cloudy
12:55 AM 63.5 °F 63.5 °F 100% 30.04 in 5.0 mi North - - N/A   Mostly Cloudy
1:15 AM 63.0 °F 63.0 °F 100% 30.03 in 5.0 mi North - - N/A   Scattered Clouds
1:35 AM 62.6 °F 62.6 °F 100% 30.03 in 4.0 mi North - - N/A   Clear
1:55 AM 62.6 °F 62.6 °F 100% 30.03 in 7.0 mi North - - N/A   Mostly Cloudy
2:15 AM 62.1 °F 62.1 °F 100% 30.03 in 5.0 mi North - - N/A   Mostly Cloudy
2:35 AM 61.9 °F 61.9 °F 100% 30.03 in 5.0 mi North - - N/A   Scattered Clouds
2:55 AM 61.5 °F 61.5 °F 100% 30.03 in 4.0 mi North - - N/A   Scattered Clouds
3:15 AM 60.8 °F 60.8 °F 100% 30.03 in 4.0 mi North - - N/A   Clear
3:35 AM 60.4 °F 60.4 °F 100% 30.03 in 4.0 mi North - - N/A   Scattered Clouds
3:55 AM 60.3 °F 60.3 °F 100% 30.03 in 4.0 mi North - - N/A   Mostly Cloudy
4:15 AM 60.6 °F 60.6 °F 100% 30.03 in 0.5 mi North - - N/A Fog Fog
4:35 AM 60.8 °F 60.8 °F 100% 30.03 in 0.8 mi North - - N/A   Overcast
4:55 AM 60.8 °F 60.8 °F 100% 30.03 in 0.5 mi North - - N/A Fog Fog
5:15 AM 61.2 °F 61.2 °F 100% 30.03 in 0.5 mi North - - N/A Fog Fog
5:35 AM 61.2 °F 61.2 °F 100% 30.04 in 0.2 mi North - - N/A Fog Fog
5:55 AM 61.5 °F 61.5 °F 100% 30.04 in 0.5 mi North - - N/A Fog Fog
6:15 AM 61.7 °F 61.7 °F 100% 30.05 in 1.0 mi North - - N/A   Overcast
6:35 AM 61.7 °F 61.7 °F 100% 30.06 in 3.0 mi North - - N/A   Overcast
6:55 AM 62.1 °F 62.1 °F 100% 30.06 in 4.0 mi North - - N/A   Overcast
7:35 AM 62.1 °F 62.1 °F 100% 30.07 in 7.0 mi North - - N/A   Overcast
7:55 AM 62.6 °F 62.6 °F 100% 30.08 in 7.0 mi North - - N/A   Overcast
8:15 AM 63.5 °F 63.5 °F 100% 30.08 in 10.0 mi North - - N/A   Overcast
8:35 AM 64.0 °F 63.1 °F 97% 30.09 in 10.0 mi North - - N/A   Overcast
8:55 AM 64.8 °F 62.6 °F 93% 30.10 in 10.0 mi North - - N/A   Overcast
9:15 AM 65.8 °F 62.6 °F 89% 30.10 in 10.0 mi North - - N/A   Mostly Cloudy
9:35 AM 65.7 °F 61.5 °F 86% 30.10 in 10.0 mi North - - N/A   Scattered Clouds
9:55 AM 67.1 °F 61.2 °F 81% 30.10 in 10.0 mi North - - N/A   Clear
10:15 AM 69.6 °F 62.4 °F 78% 30.09 in 10.0 mi North - - N/A   Scattered Clouds
10:35 AM 70.2 °F 61.7 °F 74% 30.10 in 10.0 mi North - - N/A   Scattered Clouds
10:55 AM 70.2 °F 61.5 °F 74% 30.09 in 10.0 mi North - - N/A   Scattered Clouds
11:15 AM 71.1 °F 59.7 °F 67% 30.09 in 10.0 mi North - - N/A   Clear
11:35 AM 73.2 °F 60.1 °F 63% 30.10 in 10.0 mi North - - N/A   Scattered Clouds
11:55 AM 72.3 °F 60.1 °F 65% 30.10 in 10.0 mi North - - N/A   Scattered Clouds
12:15 PM 75.6 °F 60.1 °F 59% 30.09 in 10.0 mi North - - N/A   Scattered Clouds
12:35 PM 76.5 °F 61.3 °F 59% 30.10 in 10.0 mi North - - N/A   Mostly Cloudy
12:55 PM 77.4 °F 61.0 °F 57% 30.10 in 10.0 mi North - - N/A   Scattered Clouds
1:15 PM 77.2 °F 59.9 °F 55% 30.10 in 10.0 mi North - - N/A   Scattered Clouds
1:35 PM 76.3 °F 60.8 °F 59% 30.10 in 10.0 mi North - - N/A   Scattered Clouds
1:55 PM 78.1 °F 59.4 °F 52% 30.10 in 10.0 mi North - - N/A   Clear
2:15 PM 78.6 °F 59.7 °F 52% 30.10 in 10.0 mi North - - N/A   Scattered Clouds
2:35 PM 78.4 °F 59.2 °F 51% 30.10 in 10.0 mi North - - N/A   Scattered Clouds
2:55 PM 78.8 °F 59.9 °F 52% 30.10 in 10.0 mi North - - N/A   Clear
3:15 PM 78.8 °F 59.9 °F 52% 30.10 in 10.0 mi North - - N/A   Clear
3:35 PM 79.3 °F 59.4 °F 50% 30.10 in 10.0 mi North - - N/A   Clear
3:55 PM 78.8 °F 58.6 °F 50% 30.10 in 10.0 mi North - - N/A   Clear
4:15 PM 79.7 °F 58.6 °F 48% 30.10 in 10.0 mi North - - N/A   Clear
4:35 PM 79.9 °F 58.8 °F 48% 30.10 in 10.0 mi North - - N/A   Clear
4:55 PM 79.3 °F 58.6 °F 49% 30.10 in 10.0 mi North - - N/A   Clear
5:15 PM 79.0 °F 59.4 °F 51% 30.10 in 10.0 mi North - - N/A   Scattered Clouds
5:35 PM 79.2 °F 61.3 °F 54% 30.11 in 10.0 mi North - - N/A   Scattered Clouds
5:55 PM 79.2 °F 61.2 °F 54% 30.11 in 10.0 mi North - - N/A   Clear
6:15 PM 78.6 °F 61.2 °F 55% 30.12 in 10.0 mi North - - N/A   Clear
6:35 PM 77.4 °F 61.2 °F 57% 30.13 in 10.0 mi North - - N/A   Clear
6:55 PM 75.9 °F 61.3 °F 60% 30.13 in 10.0 mi North - - N/A   Clear
7:15 PM 74.3 °F 62.1 °F 65% 30.13 in 10.0 mi North - - N/A   Clear
7:35 PM 71.6 °F 62.2 °F 72% 30.14 in 10.0 mi North - - N/A   Clear
7:55 PM 69.6 °F 62.2 °F 77% 30.14 in 10.0 mi North - - N/A   Clear
8:15 PM 67.5 °F 63.1 °F 86% 30.13 in 10.0 mi North - - N/A   Clear
8:35 PM 65.7 °F 62.8 °F 90% 30.14 in 10.0 mi North - - N/A   Clear
8:55 PM 64.4 °F 62.6 °F 94% 30.14 in 10.0 mi North - - N/A   Clear
9:15 PM 63.3 °F 62.1 °F 96% 30.14 in 10.0 mi North - - N/A   Clear
9:35 PM 62.6 °F 61.7 °F 97% 30.15 in 10.0 mi North - - N/A   Clear
9:55 PM 61.9 °F 61.5 °F 99% 30.16 in 10.0 mi North - - N/A   Clear
10:15 PM 61.3 °F 61.0 °F 99% 30.17 in 10.0 mi North - - N/A   Clear
10:35 PM 61.0 °F 60.8 °F 99% 30.17 in 10.0 mi North - - N/A   Clear
10:55 PM 60.4 °F 60.4 °F 100% 30.18 in 10.0 mi North - - N/A   Clear
11:15 PM 59.9 °F 59.9 °F 100% 30.18 in 7.0 mi North - - N/A   Clear
11:35 PM 59.7 °F 59.7 °F 100% 30.19 in 10.0 mi North - - N/A   Clear
11:55 PM 59.2 °F 59.2 °F 100% 30.19 in 7.0 mi North - - N/A   Clear